Probability
42 48 55 48 58 90 90 97 97 100 100 100 100 100 100 97 94 90 90 87 84 81 81 77 81 87 81 84 84 87 87 81 87 81 74 74 77 84 84 81 77 61 58
55 58 61 65 65 90 94 97 97 97 100 100 100 100 100 97 100 94 87 90 84 84 71 74 77 84 90 77 77 84 84 81 87 77 65 61 68 65 39 84 81 61 61
61 71 71 74 71 90 94 97 97 97 100 100 100 100 97 97 97 100 90 87 84 84 87 87 84 84 87 87 87 84 81 87 87 84 74 58 55 61 74 68 77 77 68
61 71 81 87 87 90 90 97 97 97 100 100 97 97 97 94 97 94 94 94 87 90 90 87 87 87 87 87 84 77 84 87 84 84 84 84 71 61 58 71 65 77 77
65 74 81 81 87 90 90 94 97 97 94 97 100 100 94 94 94 90 94 90 90 90 90 84 90 90 90 87 81 81 87 87 81 81 81 81 77 71 61 39 61 81 71
61 71 81 87 90 84 90 90 94 97 97 97 94 97 97 94 90 90 94 90 94 87 84 87 84 90 90 90 90 87 87 84 84 84 84 81 74 71 65 42 52 52 68
55 65 81 90 94 90 90 90 97 94 94 94 94 94 94 94 94 94 94 94 94 87 84 81 84 87 87 87 87 84 81 81 77 81 81 74 81 84 77 71 61 65 58
45 65 81 90 90 90 90 94 94 94 94 94 90 90 90 90 94 94 94 90 87 84 87 84 84 81 81 81 84 81 84 77 77 65 71 71 71 71 68 58 55 39 52
45 58 81 87 90 87 90 94 94 94 94 90 90 90 90 90 90 87 84 81 84 81 81 81 84 84 84 84 84 81 74 77 77 74 74 74 71 71 61 65 61 45 39
39 52 68 84 84 87 94 94 94 94 90 90 90 90 90 87 87 87 87 77 77 77 77 77 77 77 81 81 81 77 68 71 74 74 71 68 68 61 61 58 58 55 35
32 52 61 71 84 87 90 90 94 90 90 90 87 87 87 87 87 87 81 81 77 74 77 77 77 74 74 71 74 74 74 68 71 68 65 71 71 68 65 58 55 52 52
55 52 65 71 77 77 84 87 94 90 90 87 87 87 87 87 84 81 77 77 81 77 74 74 74 74 74 74 74 74 61 68 68 68 68 58 58 61 55 55 58 45 42
61 71 77 74 81 77 84 84 87 87 84 84 87 87 87 84 84 81 77 77 77 71 71 71 71 74 74 74 74 68 65 65 58 52 48 48 45 45 52 55 52 48 26
81 81 81 87 87 87 87 87 87 84 81 81 81 84 81 81 81 81 77 68 71 71 71 71 71 71 71 68 65 61 65 58 48 48 45 42 39 39 48 45 48 45 52
71 84 90 87 90 87 84 74 74 77 74 74 74 81 74 74 77 77 71 71 71 68 71 71 71 65 58 48 48 55 48 48 45 42 45 39 29 29 32 26 35 32 35
68 81 84 90 87 84 77 77 74 74 77 77 74 74 74 74 71 71 71 71 68 65 65 65 61 52 39 29 16 35 35 39 42 42 35 29 26 19 13 10 6 10 26
58 71 74 84 81 77 81 74 74 74 81 77 77 77 77 71 71 71 71 68 65 65 61 65 58 42 35 13 13 6 29 35 32 39 39 32 26 13 23 16 6 0 0
48 61 74 77 77 77 77 77 74 71 74 74 74 71 71 68 65 61 61 65 65 65 65 58 55 42 32 13 6 0 6 32 35 35 39 39 29 16 19 19 16 19 19
55 61 61 61 65 68 74 74 71 71 65 68 71 65 58 58 58 58 58 58 58 61 52 45 42 35 32 10 6 0 19 42 32 29 29 29 26 16 10 23 23 23 19
52 52 55 58 65 71 68 71 61 61 61 61 65 58 58 58 48 52 52 48 48 48 48 39 32 26 23 16 6 0 26 35 29 29 26 16 16 16 10 16 23 23 19
52 52 58 58 68 71 65 65 58 58 55 52 52 55 48 52 52 48 52 45 42 42 39 29 26 23 19 16 10 0 16 23 29 26 23 13 10 0 0 3 19 16 16
48 52 61 61 68 65 61 55 52 48 48 45 42 42 45 39 42 42 42 42 42 35 35 32 29 26 19 19 10 0 0 6 16 19 19 10 6 0 0 0 3 6 0
48 52 55 55 58 58 55 52 48 42 45 45 42 42 39 39 35 35 39 39 35 26 23 26 19 19 16 10 6 0 0 0 6 10 6 0 3 0 0 0 0 0 0
52 52 52 52 48 52 48 48 45 45 45 39 42 45 39 29 23 26 26 16 16 19 16 16 16 13 13 10 6 6 3 0 0 0 0 0 0 0 0 0 3 0 0
48 48 52 52 48 45 48 42 45 45 42 39 35 32 23 13 19 13 13 10 13 10 10 10 10 10 10 6 3 3 3 3 10 3 6 6 3 0 0 0 3 0 0
48 45 39 42 45 45 42 42 45 42 39 32 26 29 10 16 10 10 10 3 6 3 3 6 6 3 3 0 0 0 0 0 0 3 3 6 6 3 6 6 3 6 3
Height
5920 5920 5920 5919 5918 5918 5917 5917 5916 5915 5914 5913 5912 5911 5910 5909 5907 5906 5905 5904 5903 5902 5901 5900 5899 5899 5898 5897 5897 5896 5896 5896 5895 5895 5895 5895 5895 5894 5894 5894 5894 5893 5893
5921 5920 5920 5919 5919 5918 5917 5917 5916 5915 5915 5914 5913 5912 5911 5909 5908 5906 5905 5904 5903 5902 5901 5900 5899 5899 5898 5898 5897 5896 5896 5896 5895 5895 5895 5895 5895 5894 5893 5893 5893 5892 5892
5920 5920 5919 5919 5919 5918 5917 5917 5916 5915 5915 5914 5913 5912 5911 5910 5908 5907 5906 5904 5903 5902 5901 5900 5899 5899 5898 5897 5897 5896 5896 5896 5895 5895 5895 5894 5894 5893 5893 5892 5892 5891 5891
5919 5918 5919 5918 5918 5918 5917 5917 5916 5915 5915 5914 5913 5912 5911 5910 5909 5908 5906 5905 5904 5902 5901 5900 5899 5899 5898 5897 5897 5896 5895 5895 5895 5894 5894 5894 5893 5893 5892 5892 5891 5890 5890
5918 5917 5917 5918 5918 5917 5917 5916 5916 5915 5914 5914 5913 5912 5911 5910 5909 5907 5906 5905 5904 5902 5901 5900 5899 5898 5898 5897 5897 5896 5895 5894 5894 5893 5893 5893 5892 5891 5890 5890 5889 5889 5888
5916 5916 5916 5917 5917 5916 5916 5916 5915 5915 5914 5913 5913 5912 5911 5910 5908 5907 5906 5904 5903 5902 5901 5900 5899 5898 5897 5897 5896 5896 5895 5894 5893 5893 5892 5892 5891 5890 5889 5888 5887 5887 5886
5914 5914 5915 5915 5915 5915 5915 5914 5914 5914 5913 5912 5912 5911 5910 5909 5908 5906 5905 5904 5903 5901 5899 5899 5898 5897 5896 5896 5895 5894 5894 5893 5892 5891 5891 5890 5889 5888 5888 5887 5886 5885 5884
5912 5912 5912 5913 5913 5913 5913 5913 5913 5912 5912 5911 5911 5910 5909 5908 5906 5905 5904 5902 5901 5900 5899 5898 5897 5896 5895 5895 5894 5893 5892 5891 5891 5890 5889 5888 5887 5886 5886 5885 5884 5883 5882
5909 5910 5910 5910 5911 5911 5911 5911 5911 5911 5910 5910 5909 5909 5907 5906 5905 5904 5902 5901 5900 5898 5897 5896 5896 5895 5894 5894 5892 5891 5890 5889 5889 5888 5887 5886 5885 5884 5883 5882 5881 5881 5879
5907 5907 5907 5908 5909 5909 5909 5909 5909 5909 5909 5908 5908 5907 5906 5905 5903 5902 5901 5900 5898 5897 5896 5895 5894 5894 5893 5892 5891 5890 5889 5888 5887 5886 5885 5884 5883 5882 5881 5880 5878 5877 5876
5903 5904 5905 5905 5906 5906 5906 5907 5907 5907 5906 5906 5906 5905 5904 5902 5901 5900 5899 5898 5896 5895 5893 5893 5892 5892 5891 5890 5889 5888 5887 5886 5885 5884 5882 5881 5880 5879 5878 5877 5875 5874 5873
5900 5900 5901 5902 5903 5903 5903 5903 5904 5904 5904 5904 5903 5903 5902 5901 5900 5899 5897 5896 5895 5893 5892 5891 5890 5889 5888 5887 5886 5885 5883 5882 5881 5881 5879 5878 5877 5876 5875 5874 5872 5871 5869
5896 5897 5898 5899 5900 5900 5900 5900 5901 5901 5901 5901 5900 5900 5899 5899 5897 5896 5895 5894 5893 5891 5890 5888 5887 5886 5885 5884 5883 5881 5880 5879 5878 5877 5876 5875 5874 5872 5871 5870 5869 5867 5865
5892 5893 5894 5895 5896 5897 5897 5898 5899 5899 5898 5897 5897 5897 5897 5896 5895 5894 5893 5892 5890 5889 5887 5885 5884 5883 5882 5880 5879 5878 5876 5875 5874 5873 5872 5871 5870 5869 5868 5866 5865 5863 5861
5887 5889 5890 5891 5893 5894 5894 5895 5895 5896 5895 5894 5894 5894 5893 5893 5892 5891 5891 5889 5888 5886 5884 5883 5881 5880 5879 5877 5876 5874 5873 5872 5870 5869 5868 5867 5866 5864 5863 5862 5860 5858 5856
5884 5885 5886 5888 5889 5890 5891 5892 5892 5892 5892 5892 5891 5891 5891 5890 5889 5889 5888 5887 5885 5883 5881 5880 5878 5877 5876 5874 5872 5870 5869 5868 5866 5865 5864 5862 5861 5860 5858 5857 5855 5853 5851
5880 5881 5882 5884 5885 5887 5888 5889 5889 5889 5889 5889 5889 5888 5888 5887 5886 5885 5885 5883 5882 5880 5878 5876 5875 5873 5871 5870 5868 5866 5865 5863 5862 5861 5859 5858 5856 5855 5853 5851 5849 5847 5845
5875 5877 5878 5880 5882 5883 5884 5885 5885 5886 5886 5886 5885 5885 5884 5884 5883 5882 5881 5880 5878 5876 5874 5872 5871 5869 5867 5865 5864 5861 5860 5858 5857 5856 5854 5853 5851 5850 5848 5846 5844 5842 5840
5871 5872 5874 5876 5877 5879 5880 5881 5882 5882 5882 5882 5882 5881 5881 5880 5879 5878 5877 5875 5873 5871 5869 5868 5866 5865 5863 5861 5859 5857 5855 5853 5852 5851 5849 5847 5846 5844 5843 5841 5839 5837 5834
5865 5867 5869 5871 5873 5875 5876 5877 5878 5878 5878 5878 5878 5877 5877 5876 5875 5874 5872 5871 5869 5867 5865 5863 5862 5859 5858 5856 5854 5852 5851 5849 5847 5845 5844 5842 5840 5838 5836 5835 5832 5830 5827
5860 5862 5865 5867 5869 5870 5871 5872 5873 5874 5874 5874 5874 5873 5872 5871 5870 5869 5867 5866 5864 5862 5860 5858 5856 5854 5852 5850 5848 5846 5845 5843 5841 5839 5838 5836 5834 5832 5830 5828 5825 5823 5820
5854 5857 5860 5862 5863 5865 5867 5868 5868 5869 5869 5869 5869 5868 5867 5866 5865 5864 5862 5861 5859 5857 5855 5853 5851 5849 5847 5845 5843 5841 5839 5837 5835 5833 5832 5830 5828 5825 5823 5821 5818 5815 5812
5849 5851 5854 5856 5858 5860 5861 5862 5863 5864 5864 5864 5864 5863 5862 5861 5860 5859 5857 5855 5854 5852 5850 5847 5845 5843 5841 5839 5837 5835 5833 5831 5829 5827 5825 5823 5821 5819 5816 5814 5811 5807 5804
5844 5846 5848 5850 5852 5854 5856 5857 5858 5858 5858 5858 5858 5858 5857 5856 5855 5853 5852 5851 5848 5846 5844 5842 5840 5837 5835 5833 5831 5829 5827 5825 5823 5821 5819 5817 5814 5812 5809 5806 5803 5800 5797
5837 5839 5842 5844 5846 5848 5849 5850 5851 5852 5852 5852 5852 5851 5851 5850 5849 5848 5846 5845 5843 5841 5839 5836 5834 5832 5830 5828 5825 5823 5821 5819 5817 5814 5812 5810 5808 5805 5802 5799 5795 5792 5789
5831 5833 5835 5837 5839 5841 5843 5844 5845 5845 5845 5845 5845 5845 5844 5844 5843 5842 5841 5839 5837 5835 5833 5830 5828 5826 5824 5822 5819 5817 5815 5813 5810 5808 5805 5803 5800 5797 5794 5791 5788 5784 5781
Wind_Speed
7 7 7 8 9 9 9 9 9 9 9 9 10 10 10 11 11 10 10 9 7 7 6 6 5 5 5 5 5 5 5 4 4 3 3 3 3 3 4 5 5 5 5
8 7 7 8 8 9 9 9 9 9 9 9 10 10 10 11 11 11 10 9 9 8 7 7 6 5 5 4 4 4 5 5 5 4 4 3 4 4 5 5 5 5 6
9 8 7 7 8 8 9 9 9 9 9 10 10 10 10 10 10 10 10 9 9 8 8 7 6 6 5 5 4 5 5 5 4 4 4 4 3 4 5 5 5 6 7
9 9 7 7 8 8 9 9 9 9 9 9 9 9 10 10 10 10 10 9 9 9 8 7 6 6 6 6 5 5 5 5 5 4 4 5 5 6 6 6 6 7 8
10 9 8 8 8 9 9 10 10 9 9 9 9 9 9 10 10 10 10 9 9 8 8 7 6 6 6 6 5 5 5 5 6 5 5 6 7 7 8 8 8 8 8
12 10 10 9 9 9 9 10 10 9 9 9 9 9 9 10 10 10 10 10 9 9 8 8 7 6 6 6 6 6 6 7 7 7 7 7 7 8 7 8 8 9 9
13 12 11 11 10 10 10 10 10 10 10 10 10 10 10 10 10 10 10 10 9 9 9 8 8 8 7 7 7 7 8 8 8 8 7 8 8 8 8 9 9 9 9
14 13 13 12 12 11 11 11 11 11 10 10 10 10 11 11 11 11 10 10 10 9 9 8 9 9 9 9 8 8 8 8 8 8 9 9 9 9 10 10 11 11 11
15 14 14 13 13 12 12 11 11 11 11 11 10 11 11 11 11 11 11 10 10 10 9 9 9 9 9 10 10 9 9 8 9 9 10 10 11 11 12 12 12 11 11
16 16 15 14 13 12 12 11 11 12 12 12 11 11 12 12 11 12 11 11 11 10 10 9 9 10 11 11 11 11 11 10 10 11 12 13 13 13 12 13 13 13 13
16 16 16 15 14 14 13 12 12 12 12 12 12 12 12 12 12 12 11 11 11 11 11 11 11 11 12 13 13 13 12 12 13 13 13 14 14 14 13 14 15 15 15
17 17 17 16 16 15 15 13 13 13 13 12 12 12 12 12 13 13 12 12 12 13 12 13 12 13 13 14 14 14 14 14 15 15 15 15 15 15 14 15 15 16 16
17 17 17 17 17 15 15 15 14 14 14 14 13 13 13 12 13 14 14 13 13 14 14 14 14 15 15 15 15 15 15 15 16 16 16 16 16 16 15 16 16 17 18
18 18 18 18 17 17 16 16 15 15 15 14 14 13 14 13 13 14 14 14 14 14 15 15 15 15 16 16 16 16 16 16 16 16 16 16 16 16 17 18 18 19 19
19 19 19 18 18 18 17 17 15 15 15 15 15 14 14 14 14 14 15 16 16 16 16 15 15 16 16 17 17 17 17 17 17 17 17 17 17 18 19 19 20 20 21
19 19 19 19 19 18 18 17 16 16 16 15 16 15 15 16 16 16 17 17 17 18 17 16 17 17 18 18 19 19 19 19 18 18 18 18 18 19 20 21 21 21 22
21 20 19 19 19 18 18 17 17 16 16 16 16 16 17 17 17 17 18 18 18 19 18 17 18 19 19 20 20 21 20 19 19 19 19 20 20 21 21 22 23 23 23
22 21 20 19 18 18 18 18 17 16 16 16 16 17 17 18 18 18 19 19 20 20 19 19 20 20 20 20 21 21 20 20 20 20 21 21 22 22 22 22 22 23 24
24 22 21 19 19 18 18 18 18 17 17 17 18 18 18 19 19 20 20 21 21 22 21 21 21 21 22 22 22 21 21 21 20 21 21 21 22 22 23 23 24 24 25
24 23 22 21 20 19 19 19 19 19 19 19 19 20 20 20 21 22 22 23 23 24 23 22 23 23 23 24 23 22 22 22 22 21 21 23 24 24 24 25 26 27 27
25 24 23 23 21 20 20 20 20 20 20 20 21 22 22 22 23 23 23 24 24 24 24 24 24 24 25 24 23 23 23 22 22 22 23 24 25 26 26 27 28 29 29
26 25 25 24 23 22 22 22 22 22 22 22 22 23 23 23 24 24 24 25 25 25 25 25 24 24 25 24 24 24 24 23 23 24 25 25 26 26 27 28 29 29 30
27 26 25 25 25 24 24 23 23 23 23 23 24 24 24 24 25 25 25 25 25 25 25 25 24 25 25 24 24 24 25 25 25 24 25 25 26 27 27 28 29 30 30
28 28 27 26 26 25 25 25 24 25 25 25 25 24 24 25 25 25 26 26 25 25 24 24 24 24 24 24 24 24 24 24 25 25 25 26 27 28 28 29 30 30 31
27 27 27 27 26 26 26 26 25 25 25 25 25 25 25 24 24 24 25 25 25 25 24 25 25 24 24 24 23 23 23 24 25 26 26 27 27 28 29 29 30 31 31
26 27 27 27 27 27 27 26 26 25 25 25 25 25 24 24 24 25 25 25 25 25 25 25 24 24 24 24 24 24 24 25 26 27 27 27 28 29 29 30 30 30 30
Wind_Direction
333 340 338 341 344 345 346 346 347 349 352 354 356 359 1 3 3 4 6 7 2 359 356 356 358 0 359 357 359 9 11 8 1 349 345 336 335 337 335 337 339 339 332
320 329 330 337 343 347 345 345 344 347 350 351 354 356 358 360 1 3 4 4 1 358 359 0 2 357 352 353 357 1 6 4 357 353 352 347 343 337 329 331 327 322 321
308 315 317 323 333 343 346 345 343 344 347 349 351 352 352 355 359 0 1 1 358 355 354 352 353 348 344 342 345 353 348 351 353 350 351 351 340 332 325 322 321 321 318
298 304 308 313 323 331 337 340 340 340 342 346 348 350 352 353 355 356 355 354 353 353 350 346 344 351 350 348 348 351 350 346 345 345 340 336 329 318 315 318 319 319 318
289 296 298 304 312 320 327 332 336 336 338 338 339 344 347 348 348 348 346 344 344 346 345 345 344 342 342 339 337 341 340 340 340 338 332 325 321 316 313 312 314 315 317
281 286 289 294 301 309 317 324 328 330 331 331 332 335 339 341 342 343 341 339 338 340 339 337 336 334 335 330 324 324 324 326 329 328 325 323 325 324 317 315 314 315 316
276 279 282 288 292 298 306 314 318 319 319 322 328 331 332 334 336 336 338 337 335 333 329 325 326 326 324 322 319 315 314 315 316 317 318 319 322 320 319 317 314 312 314
272 273 277 283 285 289 295 303 308 311 311 314 320 324 326 329 332 331 331 332 333 329 326 324 320 319 318 318 318 312 310 313 312 310 314 314 314 312 309 310 311 311 311
264 268 272 275 281 284 288 293 300 303 303 307 313 318 320 323 325 325 325 326 325 324 323 324 323 323 319 320 317 313 309 306 309 310 311 311 309 307 303 304 307 309 311
259 264 266 270 275 280 283 286 291 296 297 301 306 313 315 315 318 319 320 321 319 316 315 316 315 317 316 316 313 310 308 304 304 304 303 303 305 304 301 301 304 306 307
255 259 261 266 272 274 275 279 287 291 291 295 302 307 310 311 314 317 317 321 321 314 309 311 309 309 309 312 310 306 304 299 298 300 301 301 302 303 302 301 303 304 304
255 257 258 261 267 271 274 276 282 287 289 291 296 301 305 308 310 314 313 315 319 319 313 311 308 307 307 308 307 307 305 300 297 296 298 301 299 300 300 301 304 305 305
254 256 257 259 261 264 268 276 280 284 287 289 291 297 302 305 308 316 316 316 317 317 314 311 307 306 303 303 303 305 305 304 301 298 297 299 297 296 297 300 302 302 303
251 254 256 256 257 260 267 274 278 282 284 285 289 297 302 305 309 314 316 315 315 316 317 314 310 309 308 305 303 302 303 303 302 300 298 298 297 297 296 298 299 300 300
249 252 254 255 257 259 263 268 273 277 283 288 289 294 297 300 306 309 312 311 309 309 310 310 309 308 308 306 304 301 300 301 302 302 302 299 297 296 296 297 297 298 299
252 253 251 254 257 258 259 263 268 273 280 286 289 294 297 302 306 308 310 309 310 310 308 305 305 307 306 306 305 302 298 297 299 301 301 300 298 297 296 296 297 297 299
251 252 252 254 256 257 259 262 265 270 277 283 285 288 293 299 302 305 307 307 307 308 309 306 305 307 307 307 305 302 299 296 296 297 296 296 296 297 297 297 298 299 300
250 251 251 253 254 256 259 262 266 269 274 281 284 287 291 296 298 301 304 304 304 306 305 305 306 306 306 306 304 304 300 296 294 295 296 296 297 297 299 301 304 304 304
248 250 250 249 252 255 258 261 264 268 272 279 285 287 289 293 295 297 300 302 303 303 300 301 303 304 304 304 303 303 300 298 295 296 296 297 298 299 299 300 301 302 303
245 247 249 249 250 253 257 259 263 268 272 278 283 286 288 291 295 297 299 300 300 302 299 299 300 300 301 301 301 300 299 297 295 294 295 296 296 297 298 299 300 301 302
242 243 245 247 249 252 254 257 262 267 272 277 283 286 287 290 294 296 298 299 300 302 302 298 298 300 299 300 299 298 297 295 293 293 295 295 296 296 297 298 299 300 301
241 241 242 245 248 251 253 258 263 268 273 277 281 285 288 292 294 296 297 298 300 300 302 301 297 297 298 298 297 296 294 293 293 293 295 296 297 297 298 299 300 301 301
241 242 243 244 247 250 254 258 263 267 272 276 279 283 287 290 294 296 297 299 300 300 301 302 301 299 298 298 297 297 296 294 293 293 295 297 299 300 300 300 301 302 302
242 244 245 246 248 251 255 259 263 268 271 275 279 282 286 289 293 295 297 298 300 301 300 300 301 304 303 300 297 296 296 297 296 296 298 300 301 300 300 301 302 303 303
245 245 246 247 248 251 254 259 263 266 270 272 275 279 284 289 290 293 296 298 300 301 301 301 301 302 303 304 303 302 302 301 299 299 299 300 301 301 302 303 303 303 303
248 247 247 248 250 253 256 258 261 265 269 272 276 279 285 288 290 292 295 299 300 301 303 302 299 300 303 302 303 304 303 303 303 301 300 300 301 301 302 303 304 304 303